Year,Month,Day,Hour,Minute,Value (Times are PST for temperature in C)
2009,08,04,00,00,16.30
2009,08,04,00,01,16.20
2009,08,04,00,02,16.20
2009,08,04,00,03,16.20
2009,08,04,00,04,16.20
2009,08,04,00,05,16.20
2009,08,04,00,06,16.20
2009,08,04,00,07,16.10
2009,08,04,00,08,16.10
2009,08,04,00,09,16.10
2009,08,04,00,10,16.10
2009,08,04,00,11,16.10
2009,08,04,00,12,16.10
2009,08,04,00,13,16.10
2009,08,04,00,14,16.10
2009,08,04,00,15,16.10
2009,08,04,00,16,16.10
2009,08,04,00,17,16.10
2009,08,04,00,18,16.10
2009,08,04,00,19,16.10
2009,08,04,00,20,16.10
2009,08,04,00,21,16.00
2009,08,04,00,22,15.90
2009,08,04,00,23,15.90
2009,08,04,00,24,15.80
2009,08,04,00,25,15.80
2009,08,04,00,26,15.80
2009,08,04,00,27,15.80
2009,08,04,00,28,15.80
2009,08,04,00,29,15.80
2009,08,04,00,30,15.80
2009,08,04,00,31,15.80
2009,08,04,00,32,15.80
2009,08,04,00,33,15.70
2009,08,04,00,34,15.70
2009,08,04,00,35,15.70
2009,08,04,00,36,15.60
2009,08,04,00,37,15.60
2009,08,04,00,38,15.60
2009,08,04,00,39,15.60
2009,08,04,00,40,15.60
2009,08,04,00,41,15.60
2009,08,04,00,42,15.60
2009,08,04,00,43,15.60
2009,08,04,00,44,15.60
2009,08,04,00,45,15.60
2009,08,04,00,46,15.60
2009,08,04,00,47,15.60
2009,08,04,00,48,15.50
2009,08,04,00,49,15.50
2009,08,04,00,50,15.50
2009,08,04,00,51,15.50
2009,08,04,00,52,15.50
2009,08,04,00,53,15.50
2009,08,04,00,54,15.50
2009,08,04,00,55,15.50
2009,08,04,00,56,15.50
2009,08,04,00,57,15.40
2009,08,04,00,58,15.40
2009,08,04,00,59,15.30
2009,08,04,01,00,15.30
2009,08,04,01,01,15.20
2009,08,04,01,02,15.10
2009,08,04,01,03,15.10
2009,08,04,01,04,15.00
2009,08,04,01,05,15.00
2009,08,04,01,06,15.00
2009,08,04,01,07,14.90
2009,08,04,01,08,14.90
2009,08,04,01,09,14.80
2009,08,04,01,10,14.80
2009,08,04,01,11,14.70
2009,08,04,01,12,14.70
2009,08,04,01,13,14.60
2009,08,04,01,14,14.60
2009,08,04,01,15,14.60
2009,08,04,01,16,14.50
2009,08,04,01,17,14.50
2009,08,04,01,18,14.40
2009,08,04,01,19,14.40
2009,08,04,01,20,14.40
2009,08,04,01,21,14.40
2009,08,04,01,22,14.30
2009,08,04,01,23,14.30
2009,08,04,01,24,14.30
2009,08,04,01,25,14.20
2009,08,04,01,26,14.20
2009,08,04,01,27,14.20
2009,08,04,01,28,14.20
2009,08,04,01,29,14.20
2009,08,04,01,30,14.20
2009,08,04,01,31,14.20
2009,08,04,01,32,14.20
2009,08,04,01,33,14.20
2009,08,04,01,34,14.20
2009,08,04,01,35,14.20
2009,08,04,01,36,14.20
2009,08,04,01,37,14.20
2009,08,04,01,38,14.20
2009,08,04,01,39,14.20
2009,08,04,01,40,14.20
2009,08,04,01,41,14.20
2009,08,04,01,42,14.20
2009,08,04,01,43,14.20
2009,08,04,01,44,14.20
2009,08,04,01,45,14.20
2009,08,04,01,46,14.20
2009,08,04,01,47,14.20
2009,08,04,01,48,14.20
2009,08,04,01,49,14.20
2009,08,04,01,50,14.20
2009,08,04,01,51,14.20
2009,08,04,01,52,14.20
2009,08,04,01,53,14.20
2009,08,04,01,54,14.20
2009,08,04,01,55,14.10
2009,08,04,01,56,14.10
2009,08,04,01,57,14.00
2009,08,04,01,58,14.00
2009,08,04,01,59,14.00
2009,08,04,02,00,14.00
2009,08,04,02,01,14.00
2009,08,04,02,02,14.00
2009,08,04,02,03,14.00
2009,08,04,02,04,14.00
2009,08,04,02,05,14.00
2009,08,04,02,06,14.00
2009,08,04,02,07,14.00
2009,08,04,03,14,13.40
2009,08,04,03,15,13.40
2009,08,04,03,16,13.40
2009,08,04,03,17,13.40
2009,08,04,03,18,13.40
2009,08,04,03,19,13.40
2009,08,04,03,20,13.30
2009,08,04,03,21,13.30
2009,08,04,03,22,13.30
2009,08,04,03,23,13.30
2009,08,04,03,24,13.30
2009,08,04,03,25,13.30
2009,08,04,03,26,13.30
2009,08,04,03,27,13.30
2009,08,04,03,28,13.30
2009,08,04,03,29,13.30
2009,08,04,03,30,13.30
2009,08,04,03,31,13.30
2009,08,04,03,32,13.30
2009,08,04,03,33,13.30
2009,08,04,03,34,13.30
2009,08,04,03,35,13.30
2009,08,04,03,36,13.30
2009,08,04,03,37,13.30
2009,08,04,03,38,13.30
2009,08,04,03,39,13.30
2009,08,04,03,40,13.30
2009,08,04,03,41,13.30
2009,08,04,03,42,13.30
2009,08,04,03,43,13.30
2009,08,04,03,44,13.30
2009,08,04,03,45,13.30
2009,08,04,03,46,13.30
2009,08,04,03,47,13.30
2009,08,04,03,48,13.30
2009,08,04,03,49,13.30
2009,08,04,03,50,13.30
2009,08,04,03,51,13.30
2009,08,04,03,52,13.30
2009,08,04,03,53,13.30
2009,08,04,03,54,13.30
2009,08,04,03,55,13.30
2009,08,04,03,56,13.40
2009,08,04,03,57,13.40
2009,08,04,03,58,13.40
2009,08,04,03,59,13.40
2009,08,04,04,00,13.40
2009,08,04,04,01,13.40
2009,08,04,04,02,13.40
2009,08,04,04,03,13.40
2009,08,04,04,04,13.30
2009,08,04,04,05,13.30
2009,08,04,04,06,13.30
2009,08,04,04,07,13.30
2009,08,04,04,08,13.20
2009,08,04,04,09,13.20
2009,08,04,04,10,13.10
2009,08,04,04,11,13.10
2009,08,04,04,12,13.00
2009,08,04,04,13,13.00
2009,08,04,04,14,13.00
2009,08,04,04,15,13.00
2009,08,04,04,16,13.00
2009,08,04,04,17,12.90
2009,08,04,04,18,12.90
2009,08,04,04,19,12.90
2009,08,04,04,20,12.90
2009,08,04,04,21,12.90
2009,08,04,04,22,12.90
2009,08,04,04,23,12.90
2009,08,04,04,24,12.90
2009,08,04,04,25,12.80
2009,08,04,04,26,12.80
2009,08,04,04,27,12.80
2009,08,04,04,28,12.80
2009,08,04,04,29,12.80
2009,08,04,04,30,12.70
2009,08,04,04,31,12.70
2009,08,04,04,32,12.60
2009,08,04,04,33,12.60
2009,08,04,04,34,12.60
2009,08,04,04,35,12.50
2009,08,04,04,36,12.50
2009,08,04,04,37,12.50
2009,08,04,04,38,12.50
2009,08,04,04,39,12.50
2009,08,04,04,40,12.50
2009,08,04,04,41,12.50
2009,08,04,04,42,12.50
2009,08,04,04,43,12.50
2009,08,04,04,44,12.50
2009,08,04,04,45,12.50
2009,08,04,04,46,12.50
2009,08,04,04,47,12.50
2009,08,04,04,48,12.50
2009,08,04,04,49,12.50
2009,08,04,04,50,12.50
2009,08,04,04,51,12.60
2009,08,04,04,52,12.60
2009,08,04,04,53,12.60
2009,08,04,04,54,12.60
2009,08,04,04,55,12.60
2009,08,04,04,56,12.60
2009,08,04,04,57,12.60
2009,08,04,04,58,12.60
2009,08,04,04,59,12.60
2009,08,04,05,00,12.70
2009,08,04,05,01,12.70
2009,08,04,05,02,12.70
2009,08,04,05,03,12.70
2009,08,04,05,04,12.70
2009,08,04,05,05,12.70
2009,08,04,05,06,12.70
2009,08,04,05,07,12.70
2009,08,04,05,08,12.70
2009,08,04,05,09,12.70
2009,08,04,05,10,12.70
2009,08,04,05,11,12.70
2009,08,04,05,12,12.60
2009,08,04,05,13,12.60
2009,08,04,05,14,12.60
2009,08,04,05,15,12.60
2009,08,04,05,16,12.60
2009,08,04,05,17,12.60
2009,08,04,05,18,12.60
2009,08,04,05,19,12.60
2009,08,04,05,20,12.60
2009,08,04,05,21,12.60
2009,08,04,05,22,12.60
2009,08,04,05,23,12.50
2009,08,04,05,24,12.50
2009,08,04,05,25,12.50
2009,08,04,05,26,12.50
2009,08,04,05,27,12.50
2009,08,04,05,28,12.50
2009,08,04,05,29,12.50
2009,08,04,05,30,12.50
2009,08,04,05,31,12.50
2009,08,04,05,32,12.50
2009,08,04,05,33,12.40
2009,08,04,05,34,12.40
2009,08,04,05,35,12.40
2009,08,04,05,36,12.40
2009,08,04,05,37,12.40
2009,08,04,05,38,12.40
2009,08,04,05,39,12.40
2009,08,04,05,40,12.40
2009,08,04,05,41,12.40
2009,08,04,05,42,12.40
2009,08,04,05,43,12.40
2009,08,04,05,44,12.40
2009,08,04,05,45,12.40
2009,08,04,05,46,12.40
2009,08,04,05,47,12.40
2009,08,04,05,48,12.40
2009,08,04,05,49,12.40
2009,08,04,05,50,12.40
2009,08,04,05,51,12.40
2009,08,04,05,52,12.40
2009,08,04,05,53,12.40
2009,08,04,05,54,12.40
2009,08,04,05,55,12.40
2009,08,04,05,56,12.40
2009,08,04,05,57,12.40
2009,08,04,05,58,12.40
2009,08,04,05,59,12.40
2009,08,04,06,00,12.40
2009,08,04,06,01,12.40
2009,08,04,06,02,12.40
2009,08,04,06,03,12.40
2009,08,04,06,04,12.40
2009,08,04,06,05,12.40
2009,08,04,06,06,12.40
2009,08,04,06,07,12.40
2009,08,04,06,08,12.40
2009,08,04,06,09,12.50
2009,08,04,06,10,12.50
2009,08,04,06,11,12.50
2009,08,04,06,12,12.50
2009,08,04,06,13,12.50
2009,08,04,06,14,12.50
2009,08,04,06,15,12.50
2009,08,04,06,16,12.50
2009,08,04,06,17,12.50
2009,08,04,06,18,12.60
2009,08,04,06,19,12.60
2009,08,04,06,20,12.60
2009,08,04,06,21,12.60
2009,08,04,06,22,12.70
2009,08,04,06,23,12.70
2009,08,04,06,24,12.80
2009,08,04,06,25,12.80
2009,08,04,06,26,12.80
2009,08,04,06,27,12.80
2009,08,04,06,28,12.80
2009,08,04,06,29,12.80
2009,08,04,06,30,12.80
2009,08,04,06,31,12.80
2009,08,04,06,32,12.80
2009,08,04,06,33,12.80
2009,08,04,06,34,12.80
2009,08,04,06,35,12.80
2009,08,04,06,36,12.80
2009,08,04,06,37,12.80
2009,08,04,06,38,12.80
2009,08,04,06,39,12.80
2009,08,04,06,40,12.80
2009,08,04,06,41,12.80
2009,08,04,06,42,12.80
2009,08,04,06,43,12.80
2009,08,04,06,44,12.80
2009,08,04,06,45,12.80
2009,08,04,06,46,12.80
2009,08,04,06,47,12.80
2009,08,04,06,48,12.80
2009,08,04,06,49,12.80
2009,08,04,06,50,12.80
2009,08,04,06,51,12.80
2009,08,04,06,52,12.80
2009,08,04,06,53,12.90
2009,08,04,06,54,12.90
2009,08,04,06,55,13.00
2009,08,04,06,56,13.00
2009,08,04,06,57,13.00
2009,08,04,06,58,13.10
2009,08,04,06,59,13.10
2009,08,04,07,00,13.10
2009,08,04,07,01,13.10
2009,08,04,07,02,13.20
2009,08,04,07,03,13.20
2009,08,04,07,04,13.20
2009,08,04,07,05,13.20
2009,08,04,07,06,13.20
2009,08,04,07,07,13.20
2009,08,04,07,08,13.20
2009,08,04,07,09,13.20
2009,08,04,07,10,13.20
2009,08,04,07,11,13.30
2009,08,04,07,12,13.30
2009,08,04,07,13,13.30
2009,08,04,07,14,13.30
2009,08,04,07,15,13.30
2009,08,04,07,16,13.30
2009,08,04,07,17,13.30
2009,08,04,07,18,13.30
2009,08,04,07,19,13.30
2009,08,04,07,20,13.30
2009,08,04,07,21,13.30
2009,08,04,07,22,13.30
2009,08,04,07,23,13.30
2009,08,04,07,24,13.30
2009,08,04,07,25,13.30
2009,08,04,07,26,13.30
2009,08,04,07,27,13.30
2009,08,04,07,28,13.30
2009,08,04,07,29,13.30
2009,08,04,07,30,13.30
2009,08,04,07,31,13.40
2009,08,04,07,32,13.40
2009,08,04,07,33,13.40
2009,08,04,07,34,13.40
2009,08,04,07,35,13.40
2009,08,04,07,36,13.50
2009,08,04,07,37,13.60
2009,08,04,07,38,13.60
2009,08,04,07,39,13.60
2009,08,04,07,40,13.60
2009,08,04,07,41,13.70
2009,08,04,07,42,13.70
2009,08,04,07,43,13.70
2009,08,04,07,44,13.70
2009,08,04,07,45,13.70
2009,08,04,07,46,13.70
2009,08,04,07,47,13.70
2009,08,04,07,48,13.70
2009,08,04,07,49,13.70
2009,08,04,07,50,13.80
2009,08,04,07,51,13.90
2009,08,04,07,52,13.90
2009,08,04,07,53,14.00
2009,08,04,07,54,14.00
2009,08,04,07,55,14.10
2009,08,04,07,56,14.20
2009,08,04,07,57,14.20
2009,08,04,07,58,14.20
2009,08,04,07,59,14.20
2009,08,04,08,00,14.20
2009,08,04,08,01,14.00
2009,08,04,08,02,13.90
2009,08,04,08,03,13.80
2009,08,04,08,04,13.80
2009,08,04,08,05,13.70
2009,08,04,08,06,13.70
2009,08,04,08,07,13.60
2009,08,04,08,08,13.60
2009,08,04,08,09,13.60
2009,08,04,08,10,13.60
2009,08,04,08,11,13.60
2009,08,04,08,12,13.60
2009,08,04,08,13,13.60
2009,08,04,08,14,13.60
2009,08,04,08,15,13.60
2009,08,04,08,16,13.60
2009,08,04,08,17,13.70
2009,08,04,08,18,13.70
2009,08,04,08,19,13.70
2009,08,04,08,20,13.70
2009,08,04,08,21,13.70
2009,08,04,08,22,13.70
2009,08,04,08,23,13.60
2009,08,04,08,24,13.60
2009,08,04,08,25,13.60
2009,08,04,08,26,13.50
2009,08,04,08,27,13.60
2009,08,04,08,28,13.60
2009,08,04,08,29,13.60
2009,08,04,08,30,13.60
2009,08,04,08,31,13.60
2009,08,04,08,32,13.50
2009,08,04,08,33,13.50
2009,08,04,08,34,13.50
2009,08,04,08,35,13.50
2009,08,04,08,36,13.60
2009,08,04,08,37,13.60
2009,08,04,08,38,13.70
2009,08,04,08,39,13.70
2009,08,04,08,40,13.70
2009,08,04,08,41,13.80
2009,08,04,08,42,13.90
2009,08,04,08,43,13.90
2009,08,04,08,44,14.00
2009,08,04,08,45,14.00
2009,08,04,08,46,14.10
2009,08,04,08,47,14.10
2009,08,04,08,48,14.20
2009,08,04,08,49,14.20
2009,08,04,08,50,14.10
2009,08,04,08,51,14.10
2009,08,04,08,52,14.10
2009,08,04,08,53,14.00
2009,08,04,08,54,14.00
2009,08,04,08,55,14.00
2009,08,04,08,56,14.10
2009,08,04,08,57,14.20
2009,08,04,08,58,14.20
2009,08,04,08,59,14.20
2009,08,04,09,00,14.20
2009,08,04,09,01,14.20
2009,08,04,09,02,14.20
2009,08,04,09,03,14.30
2009,08,04,09,04,14.30
2009,08,04,09,05,14.20
2009,08,04,09,06,14.20
2009,08,04,09,07,14.20
2009,08,04,09,08,14.20
2009,08,04,09,09,14.20
2009,08,04,09,10,14.20
2009,08,04,09,11,14.20
2009,08,04,09,12,14.10
2009,08,04,09,13,14.20
2009,08,04,09,14,14.20
2009,08,04,09,15,14.10
2009,08,04,09,16,14.10
2009,08,04,09,17,14.00
2009,08,04,09,18,14.00
2009,08,04,09,19,13.90
2009,08,04,09,20,13.90
2009,08,04,09,21,13.90
2009,08,04,09,22,13.90
2009,08,04,09,23,13.90
2009,08,04,09,24,13.90
2009,08,04,09,25,13.90
2009,08,04,09,26,14.00
2009,08,04,09,27,13.90
2009,08,04,09,28,13.80
2009,08,04,09,29,13.70
2009,08,04,09,30,13.70
2009,08,04,09,31,13.80
2009,08,04,09,32,13.90
2009,08,04,09,33,13.90
2009,08,04,09,34,13.90
2009,08,04,09,35,13.90
2009,08,04,09,36,13.80
2009,08,04,09,37,13.90
2009,08,04,09,38,13.80
2009,08,04,09,39,13.70
2009,08,04,09,40,13.80
2009,08,04,09,41,13.80
2009,08,04,09,42,13.80
2009,08,04,09,43,13.80
2009,08,04,09,44,13.80
2009,08,04,09,45,13.80
2009,08,04,09,46,13.90
2009,08,04,09,47,13.80
2009,08,04,09,48,13.80
2009,08,04,09,49,13.80
2009,08,04,09,50,13.80
2009,08,04,09,51,13.80
2009,08,04,09,52,13.80
2009,08,04,09,53,13.70
2009,08,04,09,54,13.60
2009,08,04,09,55,13.50
2009,08,04,09,56,13.50
2009,08,04,09,57,13.50
2009,08,04,09,58,13.50
2009,08,04,09,59,13.50
2009,08,04,10,00,13.60
2009,08,04,10,01,13.60
2009,08,04,10,02,13.60
2009,08,04,10,03,13.50
2009,08,04,10,04,13.50
2009,08,04,10,05,13.60
2009,08,04,10,06,13.70
2009,08,04,10,07,13.70
2009,08,04,10,08,13.70
2009,08,04,10,09,13.70
2009,08,04,10,10,13.70
2009,08,04,10,11,13.60
2009,08,04,10,12,13.70
2009,08,04,10,13,13.70
2009,08,04,10,14,13.70
2009,08,04,10,15,13.70
2009,08,04,10,16,13.70
2009,08,04,10,17,13.80
2009,08,04,10,18,13.90
2009,08,04,10,19,13.90
2009,08,04,10,20,13.90
2009,08,04,10,21,14.00
2009,08,04,10,22,14.00
2009,08,04,10,23,13.90
2009,08,04,10,24,13.90
2009,08,04,10,25,13.80
2009,08,04,10,26,13.70
2009,08,04,10,27,13.70
2009,08,04,10,28,13.70
2009,08,04,10,29,13.70
2009,08,04,10,30,13.70
2009,08,04,10,31,13.70
2009,08,04,10,32,13.70
2009,08,04,10,33,13.70
2009,08,04,10,34,13.70
2009,08,04,10,35,13.60
2009,08,04,10,36,13.60
2009,08,04,10,37,13.60
2009,08,04,10,38,13.50
2009,08,04,10,39,13.50
2009,08,04,10,40,13.40
2009,08,04,10,41,13.50
2009,08,04,10,42,13.40
2009,08,04,10,43,13.50
2009,08,04,10,44,13.50
2009,08,04,10,45,13.50
2009,08,04,10,46,13.50
2009,08,04,10,47,13.40
2009,08,04,10,48,13.50
2009,08,04,10,49,13.60
2009,08,04,10,50,13.60
2009,08,04,10,51,13.70
2009,08,04,10,52,13.70
2009,08,04,10,53,13.70
2009,08,04,10,54,13.60
2009,08,04,10,55,13.60
2009,08,04,10,56,13.70
2009,08,04,10,57,13.70
2009,08,04,10,58,13.70
2009,08,04,10,59,13.70
2009,08,04,11,00,13.80
2009,08,04,11,01,13.80
2009,08,04,11,02,13.80
2009,08,04,11,03,13.70
2009,08,04,11,04,13.60
2009,08,04,11,05,13.50
2009,08,04,11,06,13.40
2009,08,04,11,07,13.40
2009,08,04,11,08,13.40
2009,08,04,11,09,13.50
2009,08,04,11,10,13.50
2009,08,04,11,11,13.40
2009,08,04,11,12,13.40
2009,08,04,11,13,13.40
2009,08,04,11,14,13.40
2009,08,04,11,15,13.50
2009,08,04,11,16,13.50
2009,08,04,11,17,13.60
2009,08,04,11,18,13.70
2009,08,04,11,19,13.70
2009,08,04,11,20,13.60
2009,08,04,11,21,13.60
2009,08,04,11,22,13.50
2009,08,04,11,23,13.40
2009,08,04,11,24,13.30
2009,08,04,11,25,13.30
2009,08,04,11,26,13.30
2009,08,04,11,27,13.40
2009,08,04,11,28,13.40
2009,08,04,11,29,13.40
2009,08,04,11,30,13.40
2009,08,04,11,31,13.30
2009,08,04,11,32,13.30
2009,08,04,11,33,13.40
2009,08,04,11,34,13.40
2009,08,04,11,35,13.40
2009,08,04,11,36,13.40
2009,08,04,11,37,13.40
2009,08,04,11,38,13.40
2009,08,04,11,39,13.50
2009,08,04,11,40,13.50
2009,08,04,11,41,13.50
2009,08,04,11,42,13.50
2009,08,04,11,43,13.60
2009,08,04,11,44,13.70
2009,08,04,11,45,13.70
2009,08,04,11,46,13.70
2009,08,04,11,47,13.70
2009,08,04,11,48,13.80
2009,08,04,11,49,13.80
2009,08,04,11,50,13.90
2009,08,04,11,51,14.00
2009,08,04,11,52,13.90
2009,08,04,11,53,13.80
2009,08,04,11,54,13.70
2009,08,04,11,55,13.70
2009,08,04,11,56,13.70
2009,08,04,11,57,13.70
2009,08,04,11,58,13.70
2009,08,04,11,59,13.70
2009,08,04,12,00,13.70
2009,08,04,12,01,13.60
2009,08,04,12,02,13.60
2009,08,04,12,03,13.60
2009,08,04,12,04,13.60
2009,08,04,12,05,13.60
2009,08,04,12,06,13.60
2009,08,04,12,07,13.60
2009,08,04,12,08,13.60
2009,08,04,12,09,13.60
2009,08,04,12,10,13.60
2009,08,04,12,11,13.60
2009,08,04,12,12,13.60
2009,08,04,12,13,13.70
2009,08,04,12,14,13.80
2009,08,04,12,15,13.90
2009,08,04,12,16,14.00
2009,08,04,12,17,14.00
2009,08,04,12,18,14.00
2009,08,04,12,19,14.00
2009,08,04,12,20,14.10
2009,08,04,12,21,14.10
2009,08,04,12,22,14.00
2009,08,04,12,23,14.00
2009,08,04,12,24,14.00
2009,08,04,12,25,14.00
2009,08,04,12,26,14.00
2009,08,04,12,27,14.10
2009,08,04,12,28,14.10
2009,08,04,12,29,14.20
2009,08,04,12,30,14.30
2009,08,04,12,31,14.30
2009,08,04,12,32,14.40
2009,08,04,12,33,14.40
2009,08,04,12,34,14.40
2009,08,04,12,35,14.40
2009,08,04,12,36,14.30
2009,08,04,12,37,14.30
2009,08,04,12,38,14.30
2009,08,04,12,39,14.40
2009,08,04,12,40,14.50
2009,08,04,12,41,14.60
2009,08,04,12,42,14.70
2009,08,04,12,43,14.70
2009,08,04,12,44,14.80
2009,08,04,12,45,14.70
2009,08,04,12,46,14.60
2009,08,04,12,47,14.60
2009,08,04,12,48,14.60
2009,08,04,12,49,14.60
2009,08,04,12,50,14.50
2009,08,04,12,51,14.40
2009,08,04,12,52,14.40
2009,08,04,12,53,14.30
2009,08,04,12,54,14.30
2009,08,04,12,55,14.30
2009,08,04,12,56,14.40
2009,08,04,12,57,14.50
2009,08,04,12,58,14.50
2009,08,04,12,59,14.50
2009,08,04,13,00,14.50
2009,08,04,13,01,14.50
2009,08,04,13,02,14.50
2009,08,04,13,03,14.50
2009,08,04,13,04,14.50
2009,08,04,13,05,14.50
2009,08,04,13,06,14.40
2009,08,04,13,07,14.50
2009,08,04,13,08,14.50
2009,08,04,13,09,14.40
2009,08,04,13,10,14.30
2009,08,04,13,11,14.30
2009,08,04,13,12,14.30
2009,08,04,13,13,14.40
2009,08,04,13,14,14.30
2009,08,04,13,15,14.40
2009,08,04,13,16,14.40
2009,08,04,13,17,14.50
2009,08,04,13,18,14.60
2009,08,04,13,19,14.60
2009,08,04,13,20,14.70
2009,08,04,13,21,14.60
2009,08,04,13,22,14.70
2009,08,04,13,23,14.80
2009,08,04,13,24,14.70
2009,08,04,13,25,14.70
2009,08,04,13,26,14.70
2009,08,04,13,27,14.60
2009,08,04,13,28,14.70
2009,08,04,13,29,14.70
2009,08,04,13,30,14.70
2009,08,04,13,31,14.60
2009,08,04,13,32,14.60
2009,08,04,13,33,14.70
2009,08,04,13,34,14.70
2009,08,04,13,35,14.70
2009,08,04,13,36,14.80
2009,08,04,13,37,14.80
2009,08,04,13,38,14.80
2009,08,04,13,39,14.80
2009,08,04,13,40,14.90
2009,08,04,13,41,14.90
2009,08,04,13,42,14.90
2009,08,04,13,43,14.90
2009,08,04,13,44,14.90
2009,08,04,13,45,14.90
2009,08,04,13,46,14.90
2009,08,04,13,47,14.90
2009,08,04,13,48,14.90
2009,08,04,13,49,15.00
2009,08,04,13,50,15.10
2009,08,04,13,51,15.10
2009,08,04,13,52,15.10
2009,08,04,13,53,15.10
2009,08,04,13,54,15.00
2009,08,04,13,55,15.00
2009,08,04,13,56,15.00
2009,08,04,13,57,15.10
2009,08,04,13,58,15.00
2009,08,04,13,59,15.00
2009,08,04,14,00,15.00
2009,08,04,14,01,15.10
2009,08,04,14,02,15.00
2009,08,04,14,03,15.10
2009,08,04,14,04,15.20
2009,08,04,14,05,15.20
2009,08,04,14,06,15.10
2009,08,04,14,07,15.10
2009,08,04,14,08,15.20
2009,08,04,14,09,15.20
2009,08,04,14,10,15.20
2009,08,04,14,11,15.30
2009,08,04,14,12,15.40
2009,08,04,14,13,15.40
2009,08,04,14,14,15.40
2009,08,04,14,15,15.40
2009,08,04,14,16,15.30
2009,08,04,14,17,15.40
2009,08,04,14,18,15.50
2009,08,04,14,19,15.40
2009,08,04,14,20,15.30
2009,08,04,14,21,15.30
2009,08,04,14,22,15.30
2009,08,04,14,23,15.30
2009,08,04,14,24,15.30
2009,08,04,14,25,15.30
2009,08,04,14,26,15.20
2009,08,04,14,27,15.10
2009,08,04,14,28,15.00
2009,08,04,14,29,15.00
2009,08,04,14,30,15.00
2009,08,04,14,31,15.00
2009,08,04,14,32,15.10
2009,08,04,14,33,15.10
2009,08,04,14,34,15.20
2009,08,04,14,35,15.20
2009,08,04,14,36,15.20
2009,08,04,14,37,15.30
2009,08,04,14,38,15.20
2009,08,04,14,39,15.10
2009,08,04,14,40,15.10
2009,08,04,14,41,15.00
2009,08,04,14,42,15.00
2009,08,04,14,43,14.80
2009,08,04,14,44,14.90
2009,08,04,14,45,15.00
2009,08,04,14,46,15.00
2009,08,04,14,47,15.10
2009,08,04,14,48,15.10
2009,08,04,14,49,15.00
2009,08,04,14,50,15.10
2009,08,04,14,51,15.20
2009,08,04,14,52,15.30
2009,08,04,14,53,15.30
2009,08,04,14,54,15.30
2009,08,04,14,55,15.20
2009,08,04,14,56,15.10
2009,08,04,14,57,15.10
2009,08,04,14,58,15.10
2009,08,04,14,59,15.00
2009,08,04,15,00,15.10
2009,08,04,15,01,15.10
2009,08,04,15,02,15.10
2009,08,04,15,03,15.10
2009,08,04,15,04,15.20
2009,08,04,15,05,15.20
2009,08,04,15,06,15.10
2009,08,04,15,07,15.00
2009,08,04,15,08,15.00
2009,08,04,15,09,15.10
2009,08,04,15,10,15.00
2009,08,04,15,11,15.00
2009,08,04,15,12,14.90
2009,08,04,15,13,14.90
2009,08,04,15,14,14.90
2009,08,04,15,15,15.00
2009,08,04,15,16,15.10
2009,08,04,15,17,15.20
2009,08,04,15,18,15.10
2009,08,04,15,19,15.10
2009,08,04,15,20,15.10
2009,08,04,15,21,14.90
2009,08,04,15,22,14.90
2009,08,04,15,23,14.90
2009,08,04,15,24,14.70
2009,08,04,15,25,14.60
2009,08,04,15,26,14.50
2009,08,04,15,27,14.50
2009,08,04,15,28,14.60
2009,08,04,15,29,14.60
2009,08,04,15,30,14.60
2009,08,04,15,31,14.60
2009,08,04,15,32,14.60
2009,08,04,15,33,14.70
2009,08,04,15,34,14.70
2009,08,04,15,35,14.80
2009,08,04,15,36,14.90
2009,08,04,15,37,15.00
2009,08,04,15,38,15.10
2009,08,04,15,39,15.00
2009,08,04,15,40,14.80
2009,08,04,15,41,14.80
2009,08,04,15,42,14.80
2009,08,04,15,43,14.80
2009,08,04,15,44,14.80
2009,08,04,15,45,14.80
2009,08,04,15,46,14.90
2009,08,04,15,47,14.90
2009,08,04,15,48,14.90
2009,08,04,15,49,14.80
2009,08,04,15,50,14.70
2009,08,04,15,51,14.70
2009,08,04,15,52,14.80
2009,08,04,15,53,14.70
2009,08,04,15,54,14.70
2009,08,04,15,55,14.70
2009,08,04,15,56,14.70
2009,08,04,15,57,14.70
2009,08,04,15,58,14.80
2009,08,04,15,59,14.80
2009,08,04,16,00,14.80
2009,08,04,16,01,14.80
2009,08,04,16,02,14.80
2009,08,04,16,03,14.80
2009,08,04,16,04,14.70
2009,08,04,16,05,14.70
2009,08,04,16,06,14.70
2009,08,04,16,07,14.70
2009,08,04,16,08,14.70
2009,08,04,16,09,14.80
2009,08,04,16,10,14.80
2009,08,04,16,11,14.90
2009,08,04,16,12,15.00
2009,08,04,16,13,15.20
2009,08,04,16,14,15.20
2009,08,04,16,15,15.20
2009,08,04,16,16,15.20
2009,08,04,16,17,15.10
2009,08,04,16,18,15.10
2009,08,04,16,19,15.10
2009,08,04,16,20,15.10
2009,08,04,16,21,15.10
2009,08,04,16,22,15.10
2009,08,04,16,23,15.20
2009,08,04,16,24,15.20
2009,08,04,16,25,15.20
2009,08,04,16,26,15.30
2009,08,04,16,27,15.30
2009,08,04,16,28,15.40
2009,08,04,16,29,15.50
2009,08,04,16,30,15.50
2009,08,04,16,31,15.60
2009,08,04,16,32,15.70
2009,08,04,16,33,15.70
2009,08,04,16,34,15.80
2009,08,04,16,35,15.80
2009,08,04,16,36,15.90
2009,08,04,16,37,16.00
2009,08,04,16,38,16.10
2009,08,04,16,39,16.10
2009,08,04,16,40,16.20
2009,08,04,16,41,16.30
2009,08,04,16,42,16.40
2009,08,04,16,43,16.40
2009,08,04,16,44,16.50
2009,08,04,16,45,16.60
2009,08,04,16,46,16.70
2009,08,04,16,47,16.70
2009,08,04,16,48,16.80
2009,08,04,16,49,16.90
2009,08,04,16,50,17.00
2009,08,04,16,51,17.00
2009,08,04,16,52,17.20
2009,08,04,16,53,17.30
2009,08,04,16,54,17.30
2009,08,04,16,55,17.50
2009,08,04,16,56,17.50
2009,08,04,16,57,17.60
2009,08,04,16,58,17.70
2009,08,04,16,59,17.70
2009,08,04,17,00,17.80
2009,08,04,17,01,17.80
2009,08,04,17,02,17.80
2009,08,04,17,03,17.90
2009,08,04,17,04,17.90
2009,08,04,17,05,17.90
2009,08,04,17,06,17.90
2009,08,04,17,07,18.00
2009,08,04,17,08,18.10
2009,08,04,17,09,18.20
2009,08,04,17,10,18.20
2009,08,04,17,11,18.20
2009,08,04,17,12,18.20
2009,08,04,17,13,18.30
2009,08,04,17,14,18.40
2009,08,04,17,15,18.40
2009,08,04,17,16,18.50
2009,08,04,17,17,18.60
2009,08,04,17,18,18.70
2009,08,04,17,19,18.70
2009,08,04,17,20,18.70
2009,08,04,17,21,18.60
2009,08,04,17,22,18.60
2009,08,04,17,23,18.60
2009,08,04,17,24,18.60
2009,08,04,17,25,18.60
2009,08,04,17,26,18.60
2009,08,04,17,27,18.60
2009,08,04,17,28,18.50
2009,08,04,17,29,18.60
2009,08,04,17,30,18.60
2009,08,04,17,31,18.60
2009,08,04,17,32,18.60
2009,08,04,17,33,18.60
2009,08,04,17,34,18.60
2009,08,04,17,35,18.70
2009,08,04,17,36,18.70
2009,08,04,17,37,18.60
2009,08,04,17,38,18.50
2009,08,04,17,39,18.30
2009,08,04,17,40,18.20
2009,08,04,17,41,18.00
2009,08,04,17,42,17.80
2009,08,04,17,43,17.60
2009,08,04,17,44,17.40
2009,08,04,17,45,17.20
2009,08,04,17,46,17.00
2009,08,04,17,47,16.70
2009,08,04,17,48,16.50
2009,08,04,17,49,16.30
2009,08,04,17,50,16.20
2009,08,04,17,51,16.20
2009,08,04,17,52,16.20
2009,08,04,17,53,16.30
2009,08,04,17,54,16.30
2009,08,04,17,55,16.40
2009,08,04,17,56,16.50
2009,08,04,17,57,16.60
2009,08,04,17,58,16.70
2009,08,04,17,59,16.70
2009,08,04,18,00,16.70
2009,08,04,18,01,16.70
2009,08,04,18,02,16.70
2009,08,04,18,03,16.70
2009,08,04,18,04,16.70
2009,08,04,18,05,16.80
2009,08,04,18,06,16.90
2009,08,04,18,07,16.90
2009,08,04,18,08,17.00
2009,08,04,18,09,17.00
2009,08,04,18,10,17.10
2009,08,04,18,11,17.20
2009,08,04,18,12,17.20
2009,08,04,18,13,17.30
2009,08,04,18,14,17.30
2009,08,04,18,15,17.40
2009,08,04,18,16,17.40
2009,08,04,18,17,17.40
2009,08,04,18,18,17.40
2009,08,04,18,19,17.40
2009,08,04,18,20,17.40
2009,08,04,18,21,17.40
2009,08,04,18,22,17.40
2009,08,04,18,23,17.40
2009,08,04,18,24,17.40
2009,08,04,18,25,17.50